This is the latest recevied weather packets stored in our database for station/object YT6PT-8. If no packets are shown the sender has not sent any weather packets the latest 10 day(s).
| Time | Temp. | Humidity | Pressure | Rain* | Wind** | Luminosity | Snow |
|---|---|---|---|---|---|---|---|
| 1788030333 | 17.22° C | 95% | 1008.9 hPa | 0 mm | 1.34 m/s, 180° | - | - |
| 1788030040 | 17.22° C | 96% | 1008.9 hPa | 0.51 mm | 1.34 m/s, 158° | - | - |
| 1788029732 | 17.22° C | 96% | 1008.9 hPa | 0.51 mm | 1.34 m/s, 158° | - | - |
| 1788029434 | 17.22° C | 97% | 1008.9 hPa | 0.51 mm | 2.24 m/s, 158° | - | - |
| 1788029132 | 17.22° C | 97% | 1008.9 hPa | 0.51 mm | 2.24 m/s, 158° | - | - |
| 1788028833 | 17.22° C | 96% | 1008.6 hPa | 0.51 mm | 1.79 m/s, 158° | - | - |
| 1788028551 | 17.22° C | 96% | 1008.6 hPa | 0.51 mm | 1.79 m/s, 158° | - | - |
| 1788028234 | 17.22° C | 96% | 1009 hPa | 0.51 mm | 2.68 m/s, 202° | - | - |
| 1788027933 | 17.22° C | 96% | 1009 hPa | 0.51 mm | 2.68 m/s, 202° | - | - |
| 1788027632 | 17.78° C | 96% | 1009 hPa | 0 mm | 2.24 m/s, 158° | - | - |
| 1788027333 | 17.78° C | 96% | 1009 hPa | 0 mm | 2.24 m/s, 158° | - | - |
| 1788027033 | 17.78° C | 95% | 1009.5 hPa | 0 mm | 1.34 m/s, 158° | - | - |
| 1788026734 | 17.78° C | 95% | 1009.5 hPa | 0 mm | 1.34 m/s, 158° | - | - |
| 1788026439 | 17.78° C | 93% | 1009.5 hPa | 0 mm | 1.34 m/s, 158° | - | - |
| 1788026132 | 17.78° C | 93% | 1009.5 hPa | 0 mm | 1.34 m/s, 158° | - | - |
| 1788025832 | 18.33° C | 91% | 1009.5 hPa | 0 mm | 0.45 m/s, 158° | - | - |
| 1788025534 | 18.33° C | 91% | 1009.5 hPa | 0 mm | 0.45 m/s, 158° | - | - |
| 1788025231 | 18.33° C | 90% | 1009.3 hPa | 0 mm | 2.24 m/s, 180° | - | - |
| 1788024933 | 18.33° C | 90% | 1009.3 hPa | 0 mm | 2.24 m/s, 180° | - | - |
| 1788024633 | 18.33° C | 89% | 1009.2 hPa | 0 mm | 1.79 m/s, 158° | - | - |
| 1788024332 | 18.33° C | 89% | 1008.9 hPa | 0 mm | 3.13 m/s, 158° | - | - |
| 1788024059 | 18.33° C | 89% | 1008.9 hPa | 0 mm | 3.13 m/s, 158° | - | - |
| 1788023733 | 18.33° C | 89% | 1008.9 hPa | 0 mm | 3.13 m/s, 158° | - | - |
| 1788023432 | 18.33° C | 89% | 1008.9 hPa | 0 mm | 3.13 m/s, 158° | - | - |
| 1788023133 | 18.33° C | 89% | 1008.9 hPa | 0 mm | 3.13 m/s, 158° | - | - |
* Rain latest hour (hover to see other rain measurements)
** Current wind speed in m/s (hover to see current wind gust speed)